When you browse on this site, cookies collect data to enhance your experience and personalize the content and advertising you see.
Visit our Privacy Policy to learn more. By continuing to use the site, you agree to this use of cookies and data.
  • In Hungary
  • List of Countries
  • For 7 days
  • Water Temperature
  • Satellite Maps
  • Weather Map
  • News
  • Weather Widgets
  • user-avatar
    Login

    Hourly Weather Reserva

    Today, 18 January, Friday

    Time Temperature Precipitation Wind Pressure Humidity
    00:00 +22°C° 0 mm 1 mps 683 mmHg 95%
    01:00 +22°C° 0 mm 1 mps 683 mmHg 95%
    02:00 +22°C° 0 mm 1 mps 683 mmHg 95%
    03:00 +21°C° 0 mm 1 mps 683 mmHg 95%
    04:00 +19°C° 0 mm 0 mps 683 mmHg 95%
    05:00 +19°C° 0 mm 0 mps 683 mmHg 95%
    06:00 +19°C° 0 mm 0 mps 683 mmHg 96%
    07:00 +21°C° 0.3 mm 0 mps 683 mmHg 89%
    08:00 +25°C° 0.3 mm 1 mps 684 mmHg 82%
    09:00 +27°C° 0.3 mm 1 mps 685 mmHg 75%
    10:00 +28°C° 1.2 mm 1 mps 684 mmHg 74%
    11:00 +28°C° 1.2 mm 1 mps 684 mmHg 73%
    12:00 +29°C° 1.2 mm 2 mps 684 mmHg 72%
    13:00 +29°C° 1.3 mm 2 mps 684 mmHg 71%
    14:00 +30°C° 1.3 mm 1 mps 683 mmHg 69%
    15:00 +30°C° 1.3 mm 1 mps 683 mmHg 67%
    16:00 +28°C° 2.1 mm 1 mps 683 mmHg 76%
    17:00 +26°C° 2.1 mm 2 mps 682 mmHg 86%
    18:00 +24°C° 2.1 mm 2 mps 682 mmHg 95%
    19:00 +23°C° 2.5 mm 1 mps 682 mmHg 96%
    20:00 +21°C° 2.5 mm 0 mps 682 mmHg 97%
    21:00 +20°C° 2.5 mm 0 mps 682 mmHg 98%
    22:00 +20°C° 0.1 mm 0 mps 682 mmHg 98%
    23:00 +20°C° 0.1 mm 0 mps 682 mmHg 98%

    Tomorrow, 19 January, Saturday

    Time Temperature Precipitation Wind Pressure Humidity
    00:00 +21°C° 0.1 mm 1 mps 682 mmHg 98%
    01:00 +19°C° 0 mm 0 mps 681 mmHg 98%
    02:00 +19°C° 0 mm 0 mps 681 mmHg 98%
    03:00 +19°C° 0 mm 0 mps 681 mmHg 98%
    04:00 +19°C° 0 mm 0 mps 681 mmHg 98%
    05:00 +19°C° 0 mm 0 mps 681 mmHg 98%
    06:00 +18°C° 0 mm 0 mps 681 mmHg 98%
    07:00 +20°C° 0 mm 0 mps 682 mmHg 91%
    08:00 +22°C° 0 mm 0 mps 682 mmHg 84%
    09:00 +26°C° 0 mm 1 mps 683 mmHg 77%
    10:00 +27°C° 0.4 mm 1 mps 683 mmHg 77%
    11:00 +28°C° 0.4 mm 1 mps 683 mmHg 76%
    12:00 +29°C° 0.4 mm 1 mps 683 mmHg 76%
    13:00 +29°C° 2 mm 1 mps 682 mmHg 75%
    14:00 +30°C° 2 mm 1 mps 682 mmHg 75%
    15:00 +30°C° 2 mm 1 mps 682 mmHg 74%
    16:00 +28°C° 2.6 mm 1 mps 681 mmHg 81%
    17:00 +27°C° 2.6 mm 1 mps 681 mmHg 88%
    18:00 +25°C° 2.6 mm 1 mps 681 mmHg 95%
    19:00 +24°C° 2.7 mm 1 mps 681 mmHg 96%
    20:00 +23°C° 2.7 mm 1 mps 681 mmHg 96%
    21:00 +22°C° 2.7 mm 1 mps 682 mmHg 97%
    22:00 +22°C° 0.7 mm 1 mps 682 mmHg 97%
    23:00 +22°C° 0.7 mm 1 mps 682 mmHg 98%

    Day after tomorrow, 20 January, Sunday

    Time Temperature Precipitation Wind Pressure Humidity
    00:00 +21°C° 0.7 mm 1 mps 682 mmHg 98%
    01:00 +21°C° 0 mm 1 mps 682 mmHg 98%
    02:00 +21°C° 0 mm 1 mps 681 mmHg 98%
    03:00 +21°C° 0 mm 1 mps 681 mmHg 98%
    04:00 +21°C° 0 mm 1 mps 681 mmHg 98%
    05:00 +21°C° 0 mm 1 mps 681 mmHg 98%
    06:00 +21°C° 0 mm 1 mps 681 mmHg 98%
    07:00 +22°C° 0 mm 1 mps 682 mmHg 92%
    08:00 +23°C° 0 mm 1 mps 683 mmHg 87%
    09:00 +25°C° 0 mm 1 mps 683 mmHg 81%
    10:00 +27°C° 0.1 mm 2 mps 684 mmHg 72%
    11:00 +29°C° 0.1 mm 2 mps 684 mmHg 63%
    12:00 +31°C° 0.1 mm 2 mps 684 mmHg 53%
    13:00 +31°C° 0.3 mm 2 mps 684 mmHg 55%
    14:00 +31°C° 0.3 mm 2 mps 683 mmHg 56%
    15:00 +31°C° 0.3 mm 2 mps 683 mmHg 57%
    16:00 +29°C° 1.5 mm 2 mps 682 mmHg 69%
    17:00 +27°C° 1.5 mm 1 mps 682 mmHg 82%
    18:00 +25°C° 1.5 mm 1 mps 681 mmHg 94%
    19:00 +24°C° 1.4 mm 1 mps 682 mmHg 95%
    20:00 +23°C° 1.4 mm 1 mps 682 mmHg 97%
    21:00 +20°C° 1.4 mm 0 mps 682 mmHg 98%
    22:00 +20°C° 0.5 mm 0 mps 682 mmHg 98%
    23:00 +19°C° 0.5 mm 0 mps 682 mmHg 98%

    21 January, Monday

    Time Temperature Precipitation Wind Pressure Humidity
    00:00 +19°C° 0.5 mm 0 mps 682 mmHg 98%
    01:00 +21°C° 0 mm 1 mps 682 mmHg 98%
    02:00 +21°C° 0 mm 1 mps 681 mmHg 98%
    03:00 +20°C° 0 mm 1 mps 681 mmHg 98%
    04:00 +20°C° 0 mm 1 mps 681 mmHg 98%
    05:00 +20°C° 0 mm 1 mps 681 mmHg 99%
    06:00 +20°C° 0 mm 1 mps 682 mmHg 99%
    07:00 +22°C° 0.4 mm 1 mps 682 mmHg 97%
    08:00 +23°C° 0.4 mm 1 mps 683 mmHg 95%
    09:00 +25°C° 0.4 mm 2 mps 684 mmHg 92%
    10:00 +26°C° 1 mm 2 mps 684 mmHg 90%
    11:00 +26°C° 1 mm 2 mps 684 mmHg 88%
    12:00 +27°C° 1 mm 2 mps 684 mmHg 85%
    13:00 +27°C° 1.3 mm 2 mps 683 mmHg 86%
    14:00 +27°C° 1.3 mm 2 mps 683 mmHg 87%
    15:00 +28°C° 1.3 mm 1 mps 682 mmHg 89%
    16:00 +27°C° 2.2 mm 1 mps 682 mmHg 90%
    17:00 +26°C° 2.2 mm 1 mps 682 mmHg 92%
    18:00 +25°C° 2.2 mm 1 mps 682 mmHg 94%
    19:00 +24°C° 0.3 mm 1 mps 682 mmHg 95%
    20:00 +23°C° 0.3 mm 1 mps 682 mmHg 96%
    21:00 +20°C° 0.3 mm 0 mps 683 mmHg 98%
    22:00 +20°C° 0 mm 0 mps 683 mmHg 98%
    23:00 +20°C° 0 mm 0 mps 683 mmHg 98%

    22 January, Tuesday

    Time Temperature Precipitation Wind Pressure Humidity
    00:00 +19°C° 0 mm 0 mps 683 mmHg 99%
    01:00 +19°C° 0 mm 0 mps 682 mmHg 99%
    02:00 +19°C° 0 mm 0 mps 682 mmHg 99%
    03:00 +19°C° 0 mm 0 mps 682 mmHg 99%
    04:00 +19°C° 0 mm 0 mps 682 mmHg 99%
    05:00 +19°C° 0 mm 0 mps 682 mmHg 99%
    06:00 +18°C° 0 mm 0 mps 682 mmHg 99%
    07:00 +21°C° 0 mm 0 mps 683 mmHg 91%
    08:00 +23°C° 0 mm 0 mps 684 mmHg 84%
    09:00 +27°C° 0 mm 1 mps 685 mmHg 77%
    10:00 +29°C° 0 mm 1 mps 684 mmHg 67%
    11:00 +31°C° 0 mm 1 mps 684 mmHg 56%
    12:00 +33°C° 0 mm 1 mps 684 mmHg 46%
    13:00 +32°C° 0.4 mm 1 mps 684 mmHg 54%
    14:00 +31°C° 0.4 mm 1 mps 683 mmHg 62%
    15:00 +29°C° 0.4 mm 1 mps 683 mmHg 69%
    16:00 +28°C° 2.5 mm 1 mps 682 mmHg 76%
    17:00 +27°C° 2.5 mm 1 mps 682 mmHg 83%
    18:00 +26°C° 2.5 mm 1 mps 682 mmHg 90%
    19:00 +25°C° 0.6 mm 1 mps 682 mmHg 92%
    20:00 +24°C° 0.6 mm 1 mps 682 mmHg 94%
    21:00 +21°C° 0.6 mm 0 mps 682 mmHg 95%
    22:00 +20°C° 0 mm 0 mps 682 mmHg 96%
    23:00 +20°C° 0 mm 0 mps 682 mmHg 96%

    23 January, Wednesday

    Time Temperature Precipitation Wind Pressure Humidity
    00:00 +20°C° 0 mm 0 mps 683 mmHg 97%
    01:00 +19°C° 0 mm 0 mps 682 mmHg 97%
    02:00 +19°C° 0 mm 0 mps 682 mmHg 98%
    03:00 +19°C° 0 mm 0 mps 682 mmHg 98%
    04:00 +19°C° 0 mm 0 mps 682 mmHg 98%
    05:00 +19°C° 0 mm 0 mps 682 mmHg 98%
    06:00 +19°C° 0 mm 0 mps 683 mmHg 98%
    07:00 +21°C° 0 mm 0 mps 683 mmHg 89%
    08:00 +24°C° 0 mm 0 mps 684 mmHg 79%
    09:00 +26°C° 0 mm 0 mps 685 mmHg 70%
    10:00 +28°C° 0.5 mm 0 mps 684 mmHg 67%
    11:00 +29°C° 0.5 mm 0 mps 684 mmHg 63%
    12:00 +30°C° 0.5 mm 0 mps 684 mmHg 60%
    13:00 +31°C° 2.7 mm 1 mps 683 mmHg 66%
    14:00 +31°C° 2.7 mm 1 mps 683 mmHg 72%
    15:00 +30°C° 2.7 mm 1 mps 683 mmHg 78%
    16:00 +28°C° 2.4 mm 1 mps 682 mmHg 83%
    17:00 +27°C° 2.4 mm 1 mps 682 mmHg 88%
    18:00 +26°C° 2.4 mm 1 mps 682 mmHg 92%
    19:00 +23°C° 0.4 mm 0 mps 682 mmHg 94%
    20:00 +22°C° 0.4 mm 0 mps 682 mmHg 96%
    21:00 +21°C° 0.4 mm 0 mps 682 mmHg 97%
    22:00 +21°C° 0 mm 0 mps 682 mmHg 98%
    23:00 +21°C° 0 mm 0 mps 682 mmHg 98%
    Show more